Terminal Aerodrome Forecast
Issued by NWS

Home | Current Version | Previous Version | Graphics & Text | Print | Product List | Glossary On
Versions: 1 2 3 4 5 6 7 8 9 10 11 12 13 14 15 16 17 18 19
000
FTUS42 KMHX 282300
TAFOAJ
TAF
KOAJ 282339Z 2900/2924 20005KT P6SM SCT250
     FM290900 21004KT 4SM BR BKN007 WS015/22030KT
     FM291300 21010KT P6SM SCT035 BKN250
      AMD LTD TO CLD VIS AND WIND=

USA.gov is the U.S. government's official web portal to all federal, state and local government web resources and services.